Date,TemperatureHighF,TemperatureAvgF,TemperatureLowF,DewpointHighF,DewpointAvgF,DewpointLowF,HumidityHigh,HumidityAvg,HumidityLow,PressureMaxIn,PressureMinIn,WindSpeedMaxMPH,WindSpeedAvgMPH,GustSpeedMaxMPH,PrecipitationSumIn
2013-1-1,37.2,33.0,23.9,24.8,18.4,7.4,68,55,44,29.77,29.62,24,11,24,0.28
2013-1-2,31.3,23.6,16.0,11.8,6.6,1.2,54,48,43,29.91,29.77,25,11,25,0.28
2013-1-3,23.9,17.7,9.0,10.9,1.3,-5.6,61,48,43,30.00,29.88,21,8,21,0.28
2013-1-4,37.4,31.0,19.8,25.0,18.2,8.5,72,59,46,29.88,29.71,31,10,31,0.28
2013-1-5,41.4,32.5,22.8,24.9,19.9,17.2,93,62,41,30.12,29.74,22,7,22,0.28
2013-1-6,41.2,33.9,23.0,34.2,29.2,21.0,97,83,67,30.09,29.80,22,5,22,0.28
2013-1-7,40.3,33.0,21.9,31.8,26.2,21.2,97,77,59,30.27,29.83,24,7,24,0.28
2013-1-8,46.2,39.1,22.1,35.9,32.3,21.4,97,79,49,30.24,30.15,32,10,32,0.28
2013-1-9,47.8,38.5,25.7,44.1,35.2,25.0,97,88,58,30.27,29.88,32,7,32,0.28
2013-1-10,46.9,41.8,37.8,31.4,23.8,20.1,64,49,38,30.36,29.94,29,11,29,0.28
2013-1-11,45.5,38.5,30.2,39.3,30.6,25.7,97,74,51,30.36,30.09,15,5,15,0.28
2013-1-12,49.3,44.0,39.7,44.2,41.5,37.9,97,91,72,30.09,29.97,14,5,14,0.28
2013-1-13,52.5,47.2,43.7,49.0,45.8,42.9,97,95,79,30.03,29.91,15,6,15,0.28
2013-1-14,59.0,51.0,42.4,57.2,46.3,27.8,97,86,48,30.09,29.83,23,8,23,0.28
2013-1-15,43.5,40.4,37.9,37.6,34.1,29.2,95,79,58,30.15,30.06,20,6,20,0.28
2013-1-16,43.5,40.4,37.6,42.7,39.1,31.8,97,95,74,30.09,29.59,22,7,22,0.28
2013-1-17,43.7,38.3,33.8,36.8,28.0,19.1,97,69,45,29.91,29.74,23,8,23,0.28
2013-1-18,34.0,23.2,13.1,26.4,8.6,-1.4,97,56,34,30.33,29.88,35,11,35,0.28
2013-1-19,46.0,38.4,12.7,43.3,29.3,3.9,94,70,57,30.30,29.83,31,12,31,0.28
2013-1-20,52.3,45.1,30.4,46.5,32.4,9.5,97,64,38,29.83,29.47,37,14,37,0.28
2013-1-21,34.0,28.6,23.9,30.0,12.9,3.6,97,55,35,29.97,29.62,21,7,21,0.28
2013-1-22,29.8,22.6,14.2,28.8,9.2,-4.9,97,59,36,29.91,29.59,27,12,27,0.28
2013-1-23,16.0,12.1,8.4,-3.9,-7.1,-12.1,44,41,38,30.00,29.91,27,12,27,0.28
2013-1-24,19.0,12.0,4.6,-2.6,-9.0,-15.4,44,38,35,30.06,29.88,30,14,30,0.28
2013-1-25,25.5,17.3,8.8,12.7,-4.0,-12.2,72,38,34,30.15,29.88,22,8,22,0.28
2013-1-26,24.3,20.7,16.5,18.7,8.6,-3.4,88,62,38,30.06,29.83,28,11,28,0.28
2013-1-27,29.3,20.8,13.6,7.9,1.2,-3.6,48,42,36,30.30,30.06,27,12,27,0.28
2013-1-28,34.9,27.4,16.7,33.9,12.6,-0.9,97,57,31,30.30,29.85,14,5,14,0.28
2013-1-29,38.5,36.2,34.5,37.7,35.4,33.6,97,97,94,30.06,29.85,13,4,13,0.28
2013-1-30,52.7,46.1,38.1,51.5,45.0,37.2,97,96,86,30.03,29.44,29,11,29,0.28
2013-1-31,55.0,46.7,33.4,54.2,36.0,11.6,97,70,40,29.47,28.97,43,16,43,0.28
2013-2-1,33.6,30.0,23.5,11.8,8.5,3.5,45,40,35,29.94,29.47,30,12,30,0.28
2013-2-2,32.2,26.1,19.6,27.6,8.8,1.4,90,48,37,30.12,29.91,24,9,24,0.28
2013-2-3,32.7,28.3,24.6,31.6,23.7,15.6,97,83,68,29.91,29.53,27,9,27,0.28
2013-2-4,31.6,26.2,22.3,21.4,9.7,4.3,83,51,38,29.83,29.56,28,12,28,0.28
2013-2-5,32.2,26.3,23.5,31.4,16.1,5.3,97,67,45,29.88,29.77,15,6,15,0.28
2013-2-6,40.3,34.2,28.0,33.9,23.4,7.4,97,68,41,30.12,29.77,21,7,21,0.28
2013-2-7,28.8,25.7,21.7,20.0,9.3,4.2,72,50,40,30.36,30.12,22,8,22,0.28
2013-2-8,35.4,33.2,28.8,34.7,28.3,19.7,97,83,66,30.33,29.32,56,18,56,0.35
2013-2-9,24.8,23.1,19.2,23.9,22.3,17.9,97,97,95,29.97,29.50,48,21,48,0.28
2013-2-10,30.4,21.5,13.8,23.6,18.0,11.3,95,86,60,30.24,29.97,31,9,31,0.28
2013-2-11,49.3,35.0,15.8,48.5,33.8,14.1,97,96,92,30.24,29.53,26,7,26,0.28
2013-2-12,45.5,40.7,33.3,25.0,22.9,21.9,67,49,41,29.74,29.59,30,12,30,0.00
2013-2-13,41.0,33.4,27.7,27.7,21.7,17.8,87,63,43,29.74,29.53,15,6,15,0.00
2013-2-14,39.6,34.9,29.3,35.5,27.8,16.6,97,77,43,29.88,29.53,21,6,21,0.00
2013-2-15,46.4,37.7,28.4,40.2,34.4,27.5,97,89,62,29.91,29.83,22,7,22,0.00
2013-2-16,39.0,35.3,29.7,38.1,33.3,28.9,97,92,75,29.83,29.47,30,10,30,0.00
2013-2-17,35.2,26.2,18.0,34.3,22.9,1.2,97,88,45,29.50,29.12,46,22,46,0.00
2013-2-18,32.0,23.9,16.0,6.8,2.4,-1.6,45,39,32,30.03,29.50,36,15,36,0.00
2013-2-19,47.7,37.9,23.4,46.8,26.3,3.5,97,65,37,30.03,29.47,28,9,28,0.00
2013-2-20,45.3,35.0,26.2,44.5,21.2,7.1,97,60,39,29.65,29.41,27,11,27,0.00
2013-2-21,33.6,29.4,25.3,22.3,12.3,7.8,66,49,41,29.94,29.65,37,14,37,0.00
2013-2-22,37.8,34.5,30.6,27.1,23.2,18.0,77,63,51,30.21,29.94,31,11,31,0.00
2013-2-23,43.7,37.4,31.3,41.5,30.4,24.9,97,77,52,30.21,29.71,24,8,24,0.00
2013-2-24,47.1,42.0,35.6,46.3,41.2,34.8,97,97,97,29.71,29.41,32,15,32,0.00
2013-2-25,39.6,34.7,27.1,35.4,27.2,20.2,97,76,48,30.09,29.71,25,9,25,0.00
2013-2-26,44.2,35.1,23.9,34.2,26.3,20.3,97,73,41,30.21,30.00,20,5,20,0.00
2013-2-27,47.7,44.9,39.7,46.8,43.7,32.1,97,96,74,30.00,29.41,44,18,44,0.00
2013-2-28,44.8,41.1,37.8,43.8,38.2,34.7,97,90,73,29.50,29.38,18,4,18,0.00
2013-3-1,41.2,38.2,35.8,38.8,31.9,26.2,97,79,59,29.53,29.35,27,10,27,0.00
2013-3-2,41.2,37.5,34.5,30.2,26.0,22.4,73,63,50,29.53,29.47,18,7,18,0.00
2013-3-3,46.6,37.4,34.2,31.7,26.5,23.5,85,65,47,29.50,29.41,17,6,17,0.00
2013-3-4,41.4,35.6,30.7,31.3,22.7,17.6,91,61,41,29.56,29.41,25,12,25,0.00
2013-3-5,41.4,37.0,33.8,38.8,29.9,20.4,97,76,56,29.91,29.56,28,12,28,0.00
2013-3-6,42.4,38.9,37.4,39.0,34.6,29.3,97,85,62,29.91,29.77,51,18,51,0.16
2013-3-7,39.2,38.0,36.5,38.2,37.1,35.2,97,97,91,29.77,29.71,47,26,48,0.12
2013-3-8,41.5,37.5,35.6,37.7,34.1,25.7,97,89,54,29.91,29.68,43,22,43,0.00
2013-3-9,39.4,36.7,34.3,33.1,29.5,26.9,93,75,61,30.18,29.91,36,17,36,0.00
2013-3-10,41.9,37.9,34.0,33.9,29.4,26.9,93,72,57,30.24,30.15,17,9,23,0.00
2013-3-11,51.8,42.3,36.1,43.3,35.3,30.3,97,77,51,30.21,30.06,19,8,19,0.00
2013-3-12,54.0,50.0,44.1,53.1,47.5,43.3,97,92,73,30.06,29.62,28,11,28,0.00
2013-3-13,55.6,47.5,39.4,54.8,35.3,16.9,97,66,38,29.65,29.56,32,8,32,0.00
2013-3-14,41.5,33.8,25.0,20.5,14.5,4.1,57,45,38,29.68,29.56,29,10,29,0.00
2013-3-15,39.2,30.8,21.9,25.1,11.5,3.0,64,44,33,29.74,29.53,28,13,28,0.00
2013-3-16,39.7,34.8,30.6,25.1,17.5,13.4,64,49,40,29.74,29.53,23,8,23,0.00
2013-3-17,38.5,33.1,26.2,27.6,17.4,9.6,94,55,39,30.15,29.74,25,8,25,0.00
2013-3-18,39.9,32.1,25.5,21.2,13.1,5.5,59,45,39,30.30,30.09,20,8,20,0.00
2013-3-19,48.6,39.5,32.0,47.8,38.1,22.0,97,95,63,30.09,29.35,43,14,43,0.08
2013-3-20,42.3,34.1,26.2,30.6,19.2,14.4,88,56,38,29.71,29.50,29,11,29,0.00
2013-3-21,39.2,33.9,26.8,34.7,26.8,18.5,97,77,47,29.71,29.44,28,9,28,0.00
2013-3-22,39.4,34.2,30.4,34.5,26.5,15.8,97,77,41,29.62,29.44,20,8,20,0.00
2013-3-23,43.7,36.5,29.7,20.8,17.4,14.8,63,46,35,29.65,29.50,30,12,30,0.00
2013-3-24,43.7,36.8,30.9,26.6,19.6,15.4,79,50,40,29.68,29.62,23,9,23,0.00
2013-3-25,46.6,38.5,30.9,37.0,27.9,22.0,96,68,41,29.62,29.29,39,12,39,0.00
2013-3-26,45.9,39.0,34.7,35.1,25.9,19.7,95,61,38,29.62,29.29,31,12,31,0.00
2013-3-27,55.2,43.0,33.6,38.1,24.2,18.0,90,49,36,29.71,29.62,21,8,21,0.00
2013-3-28,47.7,41.8,39.4,40.0,34.0,25.0,97,76,47,29.88,29.68,24,10,24,0.00
2013-3-29,54.3,46.1,39.4,35.8,30.6,27.1,73,55,42,29.91,29.85,21,8,21,0.00
2013-3-30,52.9,44.4,35.2,37.2,30.6,24.7,89,60,37,29.97,29.88,19,7,19,0.00
2013-3-31,58.1,45.1,29.8,45.4,33.5,26.3,97,68,35,30.00,29.65,24,6,24,0.00
2013-4-1,55.8,49.0,37.4,50.3,40.6,14.0,97,75,37,29.65,29.44,30,12,30,0.00
2013-4-2,44.2,36.6,30.4,19.3,12.6,8.5,43,37,30,29.83,29.65,33,12,33,0.00
2013-4-3,46.4,38.0,31.6,15.9,12.6,10.1,41,35,29,30.00,29.80,31,13,31,0.00
2013-4-4,47.5,38.9,31.3,33.1,18.8,10.5,78,45,32,30.15,29.97,28,12,28,0.00
2013-4-5,52.9,44.2,39.2,43.5,36.4,29.3,91,74,54,29.97,29.53,22,8,22,0.00
2013-4-6,42.1,37.6,33.1,29.2,17.6,12.7,69,45,33,30.21,29.71,29,12,29,0.00
2013-4-7,52.7,41.6,25.9,44.0,30.4,21.8,93,67,38,30.21,29.91,28,10,28,0.00
2013-4-8,59.4,51.3,43.9,49.5,40.5,34.7,97,69,42,30.00,29.85,24,9,24,0.00
2013-4-9,67.3,53.7,45.0,54.0,44.9,37.9,97,74,45,29.97,29.71,23,8,24,0.00
2013-4-10,58.1,49.8,44.6,49.2,44.0,40.9,97,81,57,29.88,29.74,21,8,23,0.00
2013-4-11,51.1,48.2,44.8,49.2,39.8,27.3,97,75,45,30.00,29.68,25,9,25,0.00
2013-4-12,46.9,43.7,38.7,46.1,35.1,23.3,97,74,45,30.03,29.53,35,13,35,0.00
2013-4-13,48.7,43.0,39.7,45.1,38.5,31.9,97,85,57,29.83,29.53,37,12,37,0.00
2013-4-14,60.6,47.9,40.5,45.0,33.6,22.1,97,61,37,30.06,29.80,21,8,22,0.00
2013-4-15,58.8,46.3,37.0,41.4,33.8,22.6,95,64,39,30.30,30.06,16,7,16,0.00
2013-4-16,57.9,50.1,41.7,49.4,42.3,39.1,97,76,51,30.30,29.97,30,11,30,0.00
2013-4-17,60.4,53.2,41.7,55.0,41.4,30.6,97,68,34,30.21,29.94,30,9,30,0.12
2013-4-18,59.0,49.4,37.6,47.1,36.7,26.7,97,65,36,30.30,30.06,24,8,24,0.00
2013-4-19,69.4,59.9,51.6,61.9,56.0,47.3,97,88,62,30.06,29.65,28,12,28,0.00
2013-4-20,62.8,55.4,45.3,61.7,47.7,34.7,97,77,45,30.06,29.56,36,11,36,0.00
2013-4-21,48.0,42.1,34.9,34.5,22.1,17.9,69,45,38,30.50,30.06,24,10,24,0.00
2013-4-22,52.3,42.9,34.5,32.8,28.3,22.5,80,57,37,30.56,30.42,29,11,29,0.00
2013-4-23,48.7,46.3,41.5,47.8,44.7,32.8,97,94,71,30.42,29.85,30,13,30,0.00
2013-4-24,62.4,51.2,46.6,54.4,46.2,41.9,97,85,52,29.85,29.68,38,16,38,0.00
2013-4-25,63.9,53.5,43.5,56.7,44.2,33.2,97,74,39,30.12,29.80,25,8,25,0.00
2013-4-26,62.1,51.9,42.4,46.0,37.9,30.6,97,65,34,30.27,30.12,18,6,18,0.00
2013-4-27,61.5,51.2,40.1,47.9,36.4,30.1,97,62,33,30.27,30.18,13,4,13,0.00
2013-4-28,64.9,52.3,37.2,47.4,39.3,33.5,95,65,35,30.24,30.15,15,5,15,0.00
2013-4-29,66.2,54.5,43.9,48.4,39.3,27.6,97,63,24,30.18,30.12,14,5,14,0.00
2013-4-30,68.0,53.3,39.6,41.6,33.6,27.4,92,53,26,30.24,30.12,15,4,15,0.00
2013-5-1,68.9,53.0,41.0,47.0,43.4,34.9,97,72,41,30.33,30.21,18,6,18,0.00
2013-5-2,73.6,56.3,44.8,49.4,41.7,32.8,97,64,27,30.30,30.24,20,5,20,0.00
2013-5-3,52.5,47.8,41.9,46.8,41.5,36.2,97,80,60,30.33,30.21,29,11,29,0.00
2013-5-4,54.1,48.5,42.6,46.8,38.6,31.6,97,71,47,30.21,30.15,32,12,32,0.00
2013-5-5,58.8,50.3,43.3,46.2,40.8,34.1,97,73,41,30.15,30.12,23,10,23,0.00
2013-5-6,67.8,54.1,46.8,51.6,46.6,42.6,97,78,49,30.15,30.06,14,6,14,0.00
2013-5-7,75.7,61.1,51.4,60.6,53.6,49.0,97,78,50,30.06,30.00,15,5,15,0.08
2013-5-8,75.4,63.2,57.4,63.2,58.1,54.4,97,85,52,30.09,29.91,22,8,22,0.00
2013-5-9,75.9,63.7,56.8,63.2,57.8,53.9,97,83,54,29.91,29.77,15,6,15,0.00
2013-5-10,77.2,65.4,57.7,60.8,55.1,48.4,97,73,38,29.85,29.77,17,7,17,0.00
2013-5-11,69.4,62.9,57.9,64.2,59.3,54.4,97,89,62,29.83,29.59,23,10,23,0.00
2013-5-12,71.1,62.3,52.9,65.8,53.8,32.5,97,76,41,29.68,29.47,27,10,27,0.00
2013-5-13,61.3,53.8,39.7,36.5,31.2,27.0,72,43,34,29.85,29.68,31,10,31,0.00
2013-5-14,62.6,51.8,42.6,39.5,32.7,26.7,82,49,35,29.91,29.83,23,9,23,0.00
2013-5-15,68.5,56.8,41.7,58.6,42.6,31.6,96,61,35,29.94,29.56,30,10,30,0.00
2013-5-16,77.7,65.3,53.2,58.7,47.1,39.7,97,57,31,29.65,29.53,27,9,27,0.00
2013-5-17,73.0,58.2,49.6,49.6,41.5,34.4,89,56,35,30.09,29.65,25,8,25,0.00
2013-5-18,73.6,59.9,45.3,54.5,46.5,38.4,96,66,34,30.18,30.09,19,5,19,0.00
2013-5-19,73.4,62.8,52.0,59.0,48.8,40.1,97,65,35,30.21,30.12,20,6,20,0.00
2013-5-20,79.5,66.9,59.9,63.8,60.3,57.2,97,82,51,30.12,29.80,18,7,18,0.00
2013-5-21,79.3,66.8,57.9,65.8,60.2,54.9,97,81,49,29.85,29.74,18,5,18,0.00
2013-5-22,80.2,63.2,54.9,63.2,57.7,52.5,97,84,47,29.83,29.77,23,6,23,0.00
2013-5-23,77.2,68.0,63.9,66.4,63.4,60.2,97,86,60,29.83,29.74,28,12,28,0.04
2013-5-24,69.8,64.7,56.3,66.4,63.2,55.3,97,95,80,29.74,29.56,40,10,40,0.00
2013-5-25,63.0,52.7,43.9,55.5,50.0,41.1,97,91,61,29.62,29.53,26,11,26,0.00
2013-5-26,59.9,50.5,42.3,41.4,36.0,32.3,91,60,37,29.94,29.59,27,11,27,0.00
2013-5-27,79.5,59.7,46.4,46.0,39.2,33.9,83,49,29,30.03,29.94,26,9,26,0.00
2013-5-28,73.9,62.2,46.4,58.8,48.3,40.5,97,65,36,30.12,30.03,15,5,15,0.00
2013-5-29,74.1,63.6,60.3,63.0,59.9,55.7,97,88,60,30.09,29.88,25,10,25,0.00
2013-5-30,89.4,74.3,62.6,66.0,62.2,57.6,97,69,40,29.94,29.88,21,8,21,0.00
2013-5-31,92.8,77.4,63.7,63.2,60.3,55.1,94,60,32,29.97,29.85,25,7,25,0.00
2013-6-1,83.8,73.0,63.0,65.6,61.6,55.1,96,70,46,29.88,29.80,25,10,25,0.00
2013-6-2,78.8,69.7,64.4,65.8,62.9,60.0,96,80,59,29.83,29.71,31,14,31,0.00
2013-6-3,70.0,66.5,64.8,68.2,65.5,62.9,97,96,88,29.74,29.65,23,10,23,0.00
2013-6-4,75.7,63.2,54.1,64.4,44.3,36.2,97,53,33,29.94,29.68,20,8,21,0.00
2013-6-5,77.2,63.2,51.4,52.3,45.2,37.9,93,55,30,30.06,29.94,15,5,15,0.00
2013-6-6,77.7,65.8,55.6,52.7,48.7,43.3,87,57,34,30.06,29.97,17,6,17,0.00
2013-6-7,68.2,60.2,58.3,67.3,57.8,50.0,97,92,71,29.97,29.62,29,10,32,0.00
2013-6-8,76.6,67.5,61.2,68.2,62.2,55.4,97,85,56,29.85,29.41,32,12,32,0.00
2013-6-9,87.4,71.0,60.6,63.7,55.2,47.1,97,62,34,30.03,29.85,22,8,22,0.00
2013-6-10,79.9,67.0,59.7,60.5,56.2,49.7,97,71,38,30.06,29.88,20,7,20,0.00
2013-6-11,79.3,66.8,56.8,68.7,62.7,55.7,97,88,59,29.88,29.41,30,10,30,0.00
2013-6-12,71.1,63.2,56.3,59.8,53.7,46.8,97,73,43,29.65,29.44,27,11,27,0.00
2013-6-13,73.6,62.0,55.6,56.8,51.9,45.1,97,71,40,29.68,29.47,21,7,21,0.00
2013-6-14,71.4,57.8,53.8,56.3,51.3,43.8,97,81,42,29.62,29.41,35,14,36,0.00
2013-6-15,85.5,67.8,57.6,57.5,48.9,38.9,96,54,29,29.83,29.59,21,8,21,0.00
2013-6-16,84.9,70.0,58.6,63.5,56.5,45.6,97,67,30,29.83,29.65,25,7,25,0.00
2013-6-17,82.8,71.6,62.8,64.7,61.2,57.0,97,72,46,29.80,29.65,24,7,24,0.00
2013-6-18,83.3,69.5,62.2,63.8,60.0,54.8,97,75,43,29.80,29.74,22,5,22,0.00
2013-6-19,77.9,63.9,58.5,61.6,53.5,46.7,97,71,40,30.03,29.71,24,10,24,0.00
2013-6-20,82.4,68.9,56.3,58.9,52.5,46.8,97,60,35,30.15,30.00,21,8,21,0.00
2013-6-21,82.2,70.8,60.3,53.2,48.8,41.9,76,47,31,30.15,30.09,25,11,25,0.00
2013-6-22,83.5,71.9,63.1,65.9,56.2,47.7,97,61,32,30.12,30.03,22,10,22,0.00
2013-6-23,83.3,74.5,66.0,70.6,64.8,57.9,97,74,49,30.06,29.94,26,10,26,0.00
2013-6-24,95.5,79.3,69.4,70.4,68.4,62.5,97,72,41,29.94,29.77,24,9,26,0.00
2013-6-25,92.8,79.0,69.6,69.5,65.0,59.0,90,65,37,29.77,29.62,44,8,44,0.08
2013-6-26,94.8,79.6,71.1,71.7,67.6,62.0,97,70,38,29.71,29.59,21,6,21,0.00
2013-6-27,83.5,72.3,67.8,70.2,67.0,61.0,97,85,53,29.74,29.62,14,4,14,0.00
2013-6-28,74.5,71.1,69.8,71.9,69.5,67.6,97,95,85,29.62,29.44,28,11,28,0.00
2013-6-29,79.3,71.6,69.1,73.1,69.0,65.7,97,92,66,29.65,29.44,21,10,21,0.00
2013-6-30,82.4,73.1,69.3,71.8,68.8,65.0,97,87,60,29.85,29.65,18,9,18,0.00
2013-7-1,84.0,74.2,70.0,74.0,70.2,67.0,97,88,62,30.00,29.85,22,9,22,0.00
2013-7-2,88.9,76.1,71.8,73.4,70.9,68.1,97,85,53,30.09,29.97,20,10,20,0.00
2013-7-3,87.1,78.5,72.0,73.4,70.8,66.0,97,79,56,30.09,30.06,22,10,22,0.00
2013-7-4,93.0,80.6,73.0,73.7,71.6,68.6,97,76,50,30.09,30.00,22,10,22,0.00
2013-7-5,93.2,81.6,72.9,72.9,70.3,65.5,94,71,44,30.03,29.94,24,9,24,0.00
2013-7-6,95.7,83.6,73.6,72.7,70.9,68.5,91,68,45,29.97,29.83,19,8,20,0.00
2013-7-7,97.5,83.1,74.3,73.5,70.1,64.8,96,68,38,29.88,29.80,20,7,20,0.00
2013-7-8,95.2,82.4,71.2,75.5,69.1,62.2,97,68,41,29.91,29.80,21,7,21,0.00
2013-7-9,76.3,71.6,68.9,70.8,68.4,64.7,97,90,73,29.94,29.88,11,5,11,0.00
2013-7-10,89.6,78.4,71.2,76.4,72.2,67.1,97,83,49,29.94,29.71,22,9,22,0.00
2013-7-11,82.0,75.8,72.3,74.9,72.4,65.6,97,90,67,29.77,29.68,23,8,23,0.00
2013-7-12,75.7,71.0,67.5,71.6,67.1,61.1,97,88,67,30.03,29.77,22,8,22,0.00
2013-7-13,90.0,75.1,68.0,72.0,68.3,64.3,97,82,48,30.18,30.03,11,5,11,0.00
2013-7-14,90.0,78.7,72.1,75.4,72.4,69.2,97,83,54,30.18,30.06,15,5,15,0.00
2013-7-15,99.9,82.4,73.9,76.6,70.4,61.1,97,70,37,30.06,29.97,11,3,12,0.00
2013-7-16,93.9,80.6,73.6,73.6,65.7,59.7,88,62,40,30.03,29.94,20,7,20,0.00
2013-7-17,91.6,81.5,70.9,70.0,65.7,59.8,93,62,36,30.06,29.91,16,5,16,0.00
2013-7-18,96.1,82.5,76.1,75.9,69.9,63.8,94,68,40,29.91,29.83,19,7,19,0.00
2013-7-19,93.7,84.7,77.0,77.6,74.8,71.4,97,74,49,29.83,29.65,31,10,31,0.00
2013-7-20,91.8,82.8,76.3,75.9,73.1,66.8,94,74,51,29.68,29.56,28,10,28,0.00
2013-7-21,88.5,77.9,69.3,72.8,67.3,59.4,95,72,41,29.85,29.68,10,5,11,0.00
2013-7-22,85.8,75.0,69.3,71.2,67.2,60.4,96,79,44,29.88,29.77,11,6,14,0.00
2013-7-23,90.0,79.7,71.8,75.2,73.1,70.5,97,82,58,29.77,29.44,26,9,26,0.00
2013-7-24,94.3,81.8,71.4,74.7,67.8,60.6,94,66,38,29.77,29.44,20,7,20,0.00
2013-7-25,72.3,66.4,63.1,66.2,60.1,55.3,97,81,68,29.91,29.77,24,13,24,0.00
2013-7-26,68.4,66.2,64.0,67.5,65.3,63.0,97,97,96,29.88,29.74,31,11,31,0.00
2013-7-27,84.6,74.7,65.3,69.9,66.0,58.6,97,77,42,29.94,29.88,16,8,19,0.00
2013-7-28,83.8,73.9,69.6,76.1,69.7,63.2,97,87,60,29.91,29.83,13,5,13,0.00
2013-7-29,88.9,78.4,68.2,73.8,69.3,64.4,97,76,46,29.91,29.85,16,6,16,0.00
2013-7-30,89.1,74.0,67.6,70.8,61.5,51.4,97,69,39,29.94,29.88,18,6,18,0.00
2013-7-31,87.1,73.9,65.1,63.5,57.5,50.0,81,59,33,30.00,29.91,14,5,14,0.00
2013-8-1,85.3,75.3,66.2,67.7,62.5,57.0,93,67,42,29.94,29.77,18,5,18,0.00
2013-8-2,85.6,73.6,67.1,73.0,65.9,58.8,97,79,44,29.77,29.68,20,6,20,0.00
2013-8-3,79.9,72.3,69.1,69.1,64.8,57.9,95,78,53,29.77,29.68,21,8,21,0.00
2013-8-4,83.5,71.4,64.2,66.4,55.4,48.4,91,59,39,29.74,29.65,19,6,19,0.00
2013-8-5,84.0,67.3,59.9,58.3,50.0,42.5,89,56,34,29.88,29.74,22,8,22,0.00
2013-8-6,84.2,68.9,55.0,57.8,50.9,44.2,91,56,34,30.03,29.88,14,3,14,0.00
2013-8-7,83.1,70.7,58.5,58.6,52.4,45.0,96,57,29,30.06,30.00,15,4,15,0.00
2013-8-8,84.6,74.8,66.2,71.8,63.7,52.8,96,70,50,30.00,29.91,24,9,24,0.00
2013-8-9,78.3,74.5,71.1,74.2,72.2,66.0,97,92,79,29.94,29.65,30,12,30,0.00
2013-8-10,86.9,76.3,68.5,72.7,62.7,48.8,97,66,32,29.85,29.68,22,8,22,0.00
2013-8-11,81.9,71.3,61.3,59.3,51.2,42.6,83,51,32,29.94,29.85,17,7,17,0.00
2013-8-12,83.8,73.7,64.2,71.0,63.6,55.1,95,73,43,29.91,29.80,18,7,18,0.00
2013-8-13,78.1,70.7,67.3,70.4,67.5,64.6,97,90,67,29.80,29.56,14,4,14,0.00
2013-8-14,76.1,69.6,64.6,67.1,53.6,44.6,97,61,34,29.80,29.53,22,8,23,0.00
2013-8-15,78.1,67.8,58.5,57.9,48.1,41.6,77,52,31,30.00,29.80,18,8,19,0.00
2013-8-16,84.4,71.6,62.2,62.0,54.9,44.0,93,59,30,30.06,29.97,22,7,22,0.00
2013-8-17,76.5,69.0,59.9,65.1,60.4,51.6,97,76,47,30.15,30.06,15,4,15,0.00
2013-8-18,83.7,70.4,62.1,64.4,58.6,50.0,97,70,34,30.15,29.94,10,2,10,0.00
2013-8-19,83.8,71.3,59.2,65.4,60.5,52.4,97,72,39,29.94,29.83,18,6,18,0.00
2013-8-20,87.6,75.6,67.8,66.8,62.2,57.0,93,66,38,29.97,29.85,15,6,15,0.00
2013-8-21,88.9,76.3,66.2,70.1,63.8,57.0,97,69,37,30.00,29.91,19,6,19,0.00
2013-8-22,87.1,75.4,68.9,71.2,68.7,64.1,97,81,53,29.91,29.74,21,9,21,0.00
2013-8-23,80.1,70.9,64.0,70.4,59.8,48.1,97,70,42,29.94,29.68,28,10,28,0.00
2013-8-24,70.9,65.9,56.1,61.4,50.8,40.8,91,60,35,30.18,29.94,22,9,26,0.00
2013-8-25,81.9,68.0,53.1,57.9,51.4,44.5,90,59,31,30.21,30.09,17,5,17,0.00
2013-8-26,80.8,72.0,64.2,67.5,62.6,56.7,89,73,47,30.09,29.77,20,10,22,0.00
2013-8-27,74.5,71.2,68.0,72.7,69.1,67.1,97,93,84,29.77,29.71,14,5,14,0.00
2013-8-28,74.1,68.9,66.4,67.8,66.0,63.0,97,91,72,29.80,29.71,12,6,12,0.00
2013-8-29,71.4,66.5,61.5,67.8,63.2,56.8,97,89,71,29.91,29.80,22,10,22,0.00
2013-8-30,78.3,68.7,60.4,68.7,61.7,56.5,97,79,61,29.88,29.74,16,8,16,0.00
2013-8-31,80.8,74.0,69.8,71.5,69.9,65.6,97,88,65,29.74,29.71,24,10,24,0.00
2013-9-1,81.7,75.0,72.0,75.5,71.7,70.1,97,90,71,29.77,29.71,40,8,40,0.16
2013-9-2,86.5,76.8,73.2,76.6,72.1,68.9,97,86,58,29.77,29.62,20,7,20,0.00
2013-9-3,86.9,74.7,67.8,73.2,70.3,65.7,97,88,54,29.68,29.56,25,5,25,0.00
2013-9-4,78.8,69.5,62.4,68.6,59.0,50.2,97,72,41,29.80,29.65,21,7,21,0.00
2013-9-5,75.7,65.0,53.6,67.9,59.9,51.5,97,84,57,29.97,29.74,20,6,20,0.00
2013-9-6,67.3,60.6,53.4,54.9,46.1,38.9,97,61,39,30.09,29.97,15,4,15,0.00
2013-9-7,74.5,64.2,50.2,55.3,50.2,44.8,97,63,38,29.97,29.74,24,7,24,0.00
2013-9-8,79.5,68.1,59.9,65.0,53.4,38.7,90,61,42,29.94,29.62,27,10,27,0.00
2013-9-9,73.0,62.0,50.0,52.2,42.9,36.5,72,51,33,30.09,29.94,17,6,17,0.00
2013-9-10,76.6,68.9,61.5,68.0,58.3,50.2,91,70,50,30.06,29.94,28,10,28,0.00
2013-9-11,86.5,76.3,70.2,72.6,69.9,67.6,97,82,56,29.97,29.85,22,9,22,0.00
2013-9-12,83.1,75.1,70.7,72.2,69.7,66.8,97,85,62,29.88,29.59,28,10,28,0.00
2013-9-13,79.2,71.8,64.6,71.8,67.6,60.2,97,87,61,29.59,29.44,20,6,20,0.00
2013-9-14,74.3,63.9,59.9,60.6,54.6,50.8,89,73,48,29.91,29.59,21,6,21,0.00
2013-9-15,72.7,62.0,54.3,55.5,49.2,44.5,88,65,40,30.03,29.91,13,6,16,0.00
2013-9-16,66.9,61.5,57.2,62.5,53.7,43.4,97,77,49,30.03,29.88,30,6,30,0.00
2013-9-17,57.7,54.0,46.6,47.7,38.7,32.6,93,58,42,30.24,30.03,29,12,30,0.00
2013-9-18,70.3,58.2,45.3,54.9,43.1,37.9,92,61,33,30.18,30.00,18,5,18,0.00
2013-9-19,75.0,63.9,55.8,60.9,54.1,45.9,97,74,42,30.03,29.91,13,5,13,0.00
2013-9-20,77.9,65.8,56.8,61.9,56.4,46.7,97,76,35,29.94,29.88,14,5,14,0.00
2013-9-21,76.5,68.8,60.6,68.3,62.7,56.1,97,83,50,29.91,29.65,22,8,22,0.00
2013-9-22,72.7,67.9,57.4,69.5,61.1,45.3,96,79,55,29.65,29.53,23,9,23,0.00
2013-9-23,60.8,56.0,50.2,46.8,41.2,36.5,74,58,46,29.85,29.65,24,11,24,0.00
2013-9-24,60.1,53.4,45.0,49.0,40.4,35.3,86,62,47,29.85,29.68,19,7,19,0.00
2013-9-25,66.2,56.3,49.8,49.7,45.4,40.2,93,68,49,29.83,29.74,17,5,17,0.00
2013-9-26,72.7,57.8,52.0,54.5,46.9,38.0,94,68,41,29.97,29.83,23,8,23,0.00
2013-9-27,65.7,59.4,51.8,53.8,51.4,48.6,96,75,62,30.12,29.94,22,10,24,0.00
2013-9-28,67.6,58.8,50.2,60.5,52.8,43.3,97,82,51,30.18,30.09,14,4,14,0.00
2013-9-29,66.7,58.0,49.1,59.0,52.0,41.8,97,83,43,30.12,29.97,15,6,15,0.00
2013-9-30,65.8,60.9,57.9,59.6,56.7,52.7,97,87,67,29.97,29.80,17,8,17,0.00
2013-10-1,69.3,60.7,54.3,58.9,51.2,43.2,97,73,45,29.83,29.71,21,6,21,0.00
2013-10-2,78.1,68.6,59.5,61.4,56.7,52.0,97,68,45,29.80,29.68,20,8,20,0.00
2013-10-3,75.4,66.3,58.5,58.9,51.0,43.3,97,60,36,29.94,29.80,17,7,17,0.00
2013-10-4,77.7,62.1,55.2,60.6,56.1,47.1,97,84,39,29.94,29.88,23,3,23,0.00
2013-10-5,70.7,63.3,59.2,63.7,59.6,55.8,97,89,64,29.97,29.91,12,2,12,0.00
2013-10-6,64.4,61.6,59.0,61.8,58.0,50.8,97,88,65,30.06,29.97,17,6,17,0.00
2013-10-7,77.2,70.1,64.2,69.5,66.4,61.2,97,89,68,29.97,29.74,24,10,25,0.00
2013-10-8,68.2,59.0,50.7,67.3,47.2,39.8,97,66,44,30.21,29.77,26,9,26,0.00
2013-10-9,62.6,55.3,50.4,47.0,42.2,38.9,86,62,45,30.27,30.21,23,9,23,0.00
2013-10-10,68.7,59.6,51.1,59.6,53.9,45.8,97,82,58,30.21,30.00,15,8,15,0.00
2013-10-11,67.5,61.3,55.9,60.8,57.5,53.0,97,88,67,30.00,29.94,23,10,23,0.00
2013-10-12,64.8,59.3,52.9,56.0,53.3,49.4,95,81,67,30.21,29.97,25,11,25,0.00
2013-10-13,61.7,53.6,44.8,50.8,44.5,39.6,94,73,46,30.27,30.18,18,8,21,0.00
2013-10-14,62.1,51.2,40.8,52.2,43.7,40.0,97,78,49,30.27,30.12,13,2,13,0.00
2013-10-15,66.0,55.3,45.7,56.2,48.4,40.3,97,80,45,30.12,30.03,13,3,13,0.00
2013-10-16,65.5,58.3,49.8,61.8,57.4,49.0,97,97,87,30.03,29.77,15,7,16,0.00
2013-10-17,72.0,63.8,58.3,64.4,59.8,56.5,97,88,62,29.77,29.62,16,5,16,0.00
2013-10-18,69.4,64.1,52.9,65.7,52.9,40.6,97,70,38,29.80,29.50,21,9,21,0.00
2013-10-19,68.4,57.4,46.9,55.4,41.0,35.3,90,56,35,29.85,29.62,14,6,14,0.00
2013-10-20,64.9,57.4,43.2,60.5,42.1,27.8,97,61,34,29.88,29.59,25,8,25,0.00
2013-10-21,64.2,53.4,40.6,46.7,38.2,31.3,80,59,34,29.97,29.88,15,6,16,0.00
2013-10-22,70.2,59.3,48.7,60.5,51.1,39.6,97,76,46,29.88,29.59,16,5,16,0.00
2013-10-23,55.4,50.3,43.5,47.4,37.3,29.6,95,63,43,29.65,29.44,18,6,18,0.00
2013-10-24,52.7,46.3,41.5,43.1,29.6,20.5,92,54,36,29.77,29.50,22,9,22,0.00
2013-10-25,51.6,44.6,38.1,32.8,26.3,22.9,75,49,38,30.03,29.77,20,8,20,0.00
2013-10-26,57.9,47.7,32.5,39.7,32.2,24.7,85,57,38,30.03,29.77,32,9,32,0.00
2013-10-27,57.4,51.6,42.4,40.1,31.2,24.6,77,46,37,29.94,29.68,22,8,22,0.00
2013-10-28,57.6,48.9,36.0,36.6,30.6,24.8,78,50,37,30.18,29.91,25,8,25,0.00
2013-10-29,51.6,44.8,37.2,34.0,31.4,26.3,81,60,43,30.27,30.18,18,5,18,0.00
2013-10-30,56.1,46.7,35.2,49.4,40.8,30.9,94,80,65,30.24,30.06,8,1,8,0.00
2013-10-31,65.5,56.5,41.2,61.2,52.6,40.4,97,88,57,30.12,29.77,22,6,22,0.00
2013-11-1,70.5,64.8,61.7,65.6,61.6,55.0,97,90,72,29.77,29.41,34,14,34,0.08
2013-11-2,64.6,58.9,54.9,59.8,52.9,47.1,97,82,55,29.59,29.47,17,3,17,0.00
2013-11-3,57.0,48.2,43.0,50.0,38.6,24.6,97,71,45,30.21,29.56,30,13,30,0.00
2013-11-4,54.3,39.9,34.9,26.6,21.6,18.9,68,48,39,30.53,30.21,29,11,29,0.00
2013-11-5,51.8,41.3,35.8,36.7,29.5,24.9,88,64,43,30.53,30.39,12,3,12,0.00
2013-11-6,58.1,50.1,37.8,55.6,45.2,34.8,97,84,55,30.39,29.97,19,6,19,0.00
2013-11-7,65.7,58.1,45.9,64.2,56.3,37.7,97,94,75,29.97,29.53,25,10,25,0.00
2013-11-8,49.6,42.9,36.3,37.4,23.3,16.1,72,46,39,29.94,29.65,25,12,25,0.00
2013-11-9,45.5,39.1,34.5,29.4,21.2,17.4,68,49,38,30.06,29.94,22,8,22,0.00
2013-11-10,60.4,49.5,38.5,47.3,37.2,27.7,89,63,40,29.94,29.59,25,8,25,0.00
2013-11-11,53.4,46.5,39.9,43.0,28.9,22.7,69,51,37,29.94,29.74,30,11,30,0.00
2013-11-12,54.0,39.5,29.1,43.3,31.5,17.2,97,75,46,30.00,29.77,26,6,26,0.00
2013-11-13,36.7,30.9,27.5,20.0,15.0,9.9,67,52,40,30.12,30.00,27,7,27,0.00
2013-11-14,49.3,41.1,25.9,32.0,24.0,12.0,74,51,35,30.06,29.91,23,6,23,0.00
2013-11-15,59.4,50.4,42.4,50.3,37.6,24.5,97,64,38,30.09,30.00,24,7,24,0.00
2013-11-16,58.5,47.0,36.1,48.1,34.3,23.6,97,65,35,30.18,30.06,9,2,12,0.00
2013-11-17,58.6,51.2,36.1,57.8,47.5,34.6,97,89,45,30.18,29.77,19,6,19,0.00
2013-11-18,63.7,57.5,47.7,62.3,51.9,35.7,97,83,51,29.77,29.47,32,11,32,0.00
2013-11-19,50.7,42.1,35.8,35.9,21.4,16.6,61,44,39,30.12,29.53,30,12,30,0.00
2013-11-20,43.7,36.2,29.8,21.3,18.0,14.6,63,47,40,30.45,30.12,22,11,24,0.00
2013-11-21,46.6,37.0,27.7,33.1,25.6,17.4,90,65,43,30.47,30.27,13,2,13,0.00
2013-11-22,55.6,49.6,37.6,54.8,46.6,30.9,97,89,77,30.27,29.68,19,5,19,0.00
2013-11-23,51.6,44.3,32.4,50.8,27.0,13.7,97,53,34,29.74,29.65,29,10,29,0.00
2013-11-24,32.4,25.7,21.9,13.9,3.8,-2.3,46,39,32,30.03,29.65,40,18,40,0.00
2013-11-25,37.9,23.8,18.0,30.6,1.5,-3.7,79,38,30,30.24,30.00,23,7,29,0.08
2013-11-26,50.4,43.4,38.1,49.4,31.9,24.6,97,65,45,30.21,29.91,22,5,22,0.00
2013-11-27,61.9,55.3,42.6,61.0,54.2,37.0,97,96,78,29.91,29.03,42,13,42,0.00
2013-11-28,42.6,33.5,25.7,37.8,15.7,5.8,83,48,39,30.27,29.32,32,12,32,0.00
2013-11-29,34.3,29.9,25.5,13.3,9.9,5.8,45,43,41,30.56,30.27,20,8,20,0.00
2013-11-30,39.6,30.3,21.6,25.1,15.3,7.0,73,54,39,30.59,30.33,15,4,15,0.00
2013-12-1,50.9,45.2,36.1,50.1,39.3,24.3,97,80,61,30.33,29.83,17,7,17,0.00
2013-12-2,49.1,43.3,41.5,48.3,41.6,38.3,97,94,87,29.83,29.77,15,5,15,0.00
2013-12-3,44.6,42.4,37.0,42.2,39.2,30.6,94,88,72,29.80,29.68,25,9,25,0.00
2013-12-4,43.5,37.1,31.3,33.6,27.6,21.8,91,70,47,30.06,29.80,18,5,18,0.00
2013-12-5,55.2,47.4,30.4,54.4,44.9,28.1,97,91,81,30.09,29.83,19,6,19,0.00
2013-12-6,59.5,51.4,39.6,58.7,50.0,34.1,97,95,74,29.97,29.77,20,9,20,0.00
2013-12-7,41.7,38.5,33.3,40.7,28.8,12.6,97,70,41,30.30,29.91,23,10,23,0.00
2013-12-8,36.0,31.9,27.1,18.7,15.6,11.1,58,51,43,30.42,30.27,19,4,19,0.00
2013-12-9,49.6,41.8,32.5,48.7,39.8,18.1,97,93,54,30.33,29.71,30,8,30,0.00
2013-12-10,39.9,35.2,26.1,39.0,32.2,15.5,97,89,62,29.88,29.65,21,5,21,0.00
2013-12-11,33.6,28.6,24.3,21.0,14.7,11.6,81,57,42,30.12,29.88,23,8,23,0.00
2013-12-12,29.3,23.0,11.1,14.6,5.5,-3.5,66,47,36,30.12,29.97,29,7,29,0.00
2013-12-13,32.2,25.5,10.4,11.1,7.5,-4.1,68,46,40,30.21,29.88,21,8,23,0.00
2013-12-14,35.6,25.7,20.3,34.8,16.2,3.8,97,68,47,30.42,30.00,26,10,26,0.00
2013-12-15,53.1,38.2,28.8,52.2,34.5,16.6,97,87,54,30.00,29.18,33,13,38,0.04
2013-12-16,31.6,27.6,20.7,21.6,9.8,2.7,72,47,36,30.06,29.65,24,8,24,0.00
2013-12-17,43.7,28.4,16.0,42.9,18.8,3.5,97,69,41,30.12,29.71,23,6,23,0.00
2013-12-18,40.3,33.2,27.1,39.5,24.6,14.1,97,73,46,29.97,29.59,30,12,30,0.00
2013-12-19,46.8,38.2,28.8,32.2,24.6,17.5,69,58,46,30.00,29.85,34,9,34,0.00
2013-12-20,54.3,44.1,31.8,50.0,37.1,23.8,95,77,50,30.00,29.85,24,7,27,0.00
2013-12-21,57.9,52.9,49.1,55.1,50.2,46.2,97,91,67,29.88,29.80,28,10,28,0.00
2013-12-22,62.6,55.6,47.1,61.6,54.8,46.3,97,97,90,29.88,29.74,36,11,36,0.00
2013-12-23,49.6,46.1,41.9,48.8,45.2,41.1,97,97,94,29.91,29.80,23,6,23,0.00
2013-12-24,43.9,36.5,29.3,43.1,26.7,12.1,97,69,43,30.03,29.85,25,12,25,0.00
2013-12-25,29.3,22.7,19.8,15.2,8.4,2.0,70,54,44,30.39,30.03,26,8,26,0.00
2013-12-26,43.5,33.5,19.9,40.4,26.5,10.2,97,76,54,30.36,29.91,21,6,21,0.00
2013-12-27,37.0,31.5,27.9,23.5,17.5,13.2,79,57,42,30.15,30.06,20,6,20,0.00
2013-12-28,49.6,37.4,22.1,33.7,27.1,17.5,89,68,43,30.12,29.88,33,6,33,0.00
2013-12-29,55.8,45.5,30.4,54.9,43.3,27.0,97,92,77,29.91,29.18,40,9,40,0.00
2013-12-30,44.6,38.3,27.3,43.4,27.3,8.5,97,68,39,29.97,29.29,29,11,29,0.00
2013-12-31,28.6,24.5,16.9,20.8,10.4,4.6,86,55,41,30.03,29.88,22,7,22,0.00
2014-1-1,29.5,24.6,20.3,11.9,6.6,2.0,57,46,41,30.24,30.03,28,6,28,0.00
2014-1-2,35.2,30.4,25.3,34.3,27.5,8.7,97,90,47,30.21,29.53,36,13,36,0.00